| time (UTC) | temp C | wind direction | speed KPH | gust KPH | rain 1hr cm | rain 24hr cm | rain mn cm | humidity % | barometer mb |
| 20260510213042 | 8 | 68 | 1.6 | 12.9 | 0.00 | 0.00 | 0.00 | 72 | 1016.8 |
| 20260510211532 | 8 | 75 | 3.2 | 12.9 | 0.00 | 0.00 | 0.00 | 70 | 1016.7 |
| 20260510210044 | 8 | 323 | 3.2 | 12.9 | 0.00 | 0.00 | 0.00 | 65 | 1016.6 |
| 20260510204543 | 9 | 10 | 4.8 | 11.3 | 0.00 | 0.00 | 0.00 | 63 | 1016.6 |
| 20260510203036 | 9 | 0 | 3.2 | 6.4 | 0.00 | 0.00 | 0.00 | 64 | 1016.6 |
| 20260510201529 | 9 | 326 | 1.6 | 6.4 | 0.00 | 0.00 | 0.00 | 64 | 1016.6 |
| 20260510200030 | 9 | 5 | 3.2 | 8.0 | 0.00 | 0.00 | 0.00 | 63 | 1016.7 |
| 20260510194530 | 10 | 57 | 4.8 | 16.1 | 0.00 | 0.00 | 0.00 | 61 | 1016.6 |
| 20260510193030 | 10 | 11 | 3.2 | 11.3 | 0.00 | 0.00 | 0.00 | 61 | 1016.6 |
| 20260510191536 | 10 | 346 | 4.8 | 11.3 | 0.00 | 0.00 | 0.00 | 59 | 1016.5 |
| 20260510190040 | 11 | 109 | 3.2 | 17.7 | 0.00 | 0.00 | 0.00 | 57 | 1016.7 |
| 20260510184537 | 12 | 88 | 4.8 | 20.9 | 0.00 | 0.00 | 0.00 | 54 | 1016.8 |
| 20260510183032 | 11 | 105 | 6.4 | 16.1 | 0.00 | 0.00 | 0.00 | 56 | 1016.9 |
| 20260510181559 | 12 | 24 | 6.4 | 20.9 | 0.00 | 0.00 | 0.00 | 56 | 1016.8 |
| 20260510180038 | 12 | 26 | 9.7 | 17.7 | 0.00 | 0.00 | 0.00 | 52 | 1016.7 |
| 20260510174559 | 11 | 9 | 4.8 | 14.5 | 0.00 | 0.00 | 0.00 | 55 | 1016.8 |
| 20260510173032 | 12 | 113 | 3.2 | 20.9 | 0.00 | 0.00 | 0.00 | 52 | 1016.9 |
| 20260510171530 | 13 | 74 | 6.4 | 19.3 | 0.00 | 0.00 | 0.00 | 51 | 1016.7 |
| 20260510170031 | 13 | 19 | 8.0 | 19.3 | 0.00 | 0.00 | 0.00 | 53 | 1017.1 |
| 20260510164537 | 13 | 96 | 4.8 | 16.1 | 0.00 | 0.00 | 0.00 | 55 | 1017.2 |
| 20260510163033 | 12 | 65 | 4.8 | 14.5 | 0.00 | 0.00 | 0.00 | 58 | 1017.4 |
| 20260510161535 | 12 | 321 | 3.2 | 17.7 | 0.00 | 0.00 | 0.00 | 58 | 1017.5 |
| 20260510160035 | 12 | 51 | 4.8 | 20.9 | 0.00 | 0.00 | 0.00 | 59 | 1017.8 |
| 20260510154532 | 12 | 29 | 4.8 | 11.3 | 0.00 | 0.00 | 0.00 | 59 | 1017.9 |
| 20260510153035 | 12 | 153 | 4.8 | 20.9 | 0.00 | 0.00 | 0.00 | 60 | 1018.0 |
| 20260510151530 | 12 | 23 | 3.2 | 20.9 | 0.00 | 0.00 | 0.00 | 61 | 1018.1 |
| 20260510150032 | 12 | 154 | 4.8 | 17.7 | 0.00 | 0.00 | 0.00 | 63 | 1018.2 |
| 20260510144535 | 12 | 338 | 6.4 | 19.3 | 0.00 | 0.00 | 0.00 | 62 | 1018.4 |
| 20260510143031 | 12 | 74 | 4.8 | 16.1 | 0.00 | 0.00 | 0.00 | 63 | 1018.5 |
| 20260510141537 | 12 | 114 | 6.4 | 17.7 | 0.00 | 0.00 | 0.00 | 65 | 1018.7 |
| 20260510140032 | 12 | 120 | 4.8 | 14.5 | 0.00 | 0.00 | 0.00 | 65 | 1018.7 |
| 20260510134530 | 11 | 89 | 3.2 | 17.7 | 0.00 | 0.00 | 0.00 | 66 | 1018.9 |
| 20260510133031 | 12 | 85 | 6.4 | 17.7 | 0.00 | 0.00 | 0.00 | 64 | 1018.9 |
| 20260510131533 | 12 | 55 | 8.0 | 22.5 | 0.00 | 0.00 | 0.00 | 66 | 1019.2 |
| 20260510130034 | 11 | 72 | 8.0 | 22.5 | 0.00 | 0.00 | 0.00 | 66 | 1019.3 |
| 20260510124538 | 11 | 309 | 4.8 | 20.9 | 0.00 | 0.00 | 0.00 | 69 | 1019.5 |
| 20260510123033 | 11 | 90 | 4.8 | 19.3 | 0.00 | 0.00 | 0.00 | 72 | 1019.7 |
| 20260510121529 | 11 | 219 | 4.8 | 14.5 | 0.00 | 0.00 | 0.00 | 72 | 1020.0 |
| 20260510120033 | 10 | 143 | 11.3 | 22.5 | 0.00 | 0.00 | 0.00 | 73 | 1020.1 |
| 20260510114538 | 10 | 320 | 3.2 | 17.7 | 0.00 | 0.00 | 0.00 | 76 | 1020.2 |
| 20260510113033 | 10 | 93 | 6.4 | 17.7 | 0.00 | 0.00 | 0.00 | 76 | 1020.3 |
| 20260510111533 | 9 | 345 | 6.4 | 17.7 | 0.00 | 0.00 | 0.00 | 79 | 1020.4 |
| 20260510110035 | 8 | 64 | 3.2 | 19.3 | 0.00 | 0.00 | 0.00 | 79 | 1020.6 |
| 20260510104534 | 8 | 336 | 8.0 | 19.3 | 0.00 | 0.00 | 0.00 | 79 | 1020.6 |
| 20260510103029 | 8 | 41 | 4.8 | 22.5 | 0.00 | 0.00 | 0.00 | 81 | 1020.7 |
| 20260510101528 | 8 | 102 | 3.2 | 17.7 | 0.00 | 0.00 | 0.00 | 82 | 1020.8 |
| 20260510100035 | 8 | 126 | 6.4 | 17.7 | 0.00 | 0.00 | 0.00 | 82 | 1020.8 |
| 20260510094532 | 8 | 90 | 4.8 | 14.5 | 0.00 | 0.00 | 0.00 | 83 | 1020.9 |
| 20260510093040 | 8 | 336 | 4.8 | 19.3 | 0.00 | 0.00 | 0.00 | 83 | 1020.9 |
| 20260510091532 | 8 | 113 | 4.8 | 17.7 | 0.00 | 0.00 | 0.00 | 84 | 1021.1 |
| 20260510090034 | 8 | 274 | 3.2 | 22.5 | 0.00 | 0.00 | 0.00 | 84 | 1021.2 |
| 20260510084535 | 7 | 107 | 1.6 | 14.5 | 0.00 | 0.00 | 0.00 | 87 | 1021.3 |
| 20260510083042 | 7 | 138 | 4.8 | 16.1 | 0.00 | 0.00 | 0.00 | 88 | 1021.4 |
| 20260510081529 | 7 | 46 | 3.2 | 16.1 | 0.00 | 0.00 | 0.00 | 88 | 1021.3 |
| 20260510080031 | 7 | 24 | 4.8 | 12.9 | 0.00 | 0.00 | 0.00 | 89 | 1021.4 |
| 20260510074534 | 7 | 12 | 3.2 | 16.1 | 0.00 | 0.00 | 0.00 | 89 | 1021.3 |
| 20260510073033 | 7 | 129 | 6.4 | 16.1 | 0.00 | 0.00 | 0.00 | 89 | 1021.4 |
| 20260510071543 | 7 | 59 | 4.8 | 19.3 | 0.00 | 0.00 | 0.00 | 90 | 1021.4 |
| 20260510070032 | 7 | 9 | 4.8 | 14.5 | 0.00 | 0.00 | 0.00 | 90 | 1021.2 |
| 20260510064528 | 7 | 88 | 3.2 | 17.7 | 0.00 | 0.00 | 0.00 | 90 | 1021.2 |
| 20260510063031 | 7 | 221 | 3.2 | 16.1 | 0.00 | 0.00 | 0.00 | 90 | 1021.1 |
| 20260510061540 | 7 | 108 | 4.8 | 17.7 | 0.00 | 0.00 | 0.00 | 91 | 1021.1 |
| 20260510060033 | 7 | 111 | 3.2 | 17.7 | 0.00 | 0.00 | 0.00 | 91 | 1020.9 |
| 20260510054530 | 7 | 217 | 4.8 | 17.7 | 0.00 | 0.00 | 0.00 | 91 | 1020.8 |
| 20260510053030 | 7 | 166 | 3.2 | 14.5 | 0.00 | 0.00 | 0.00 | 91 | 1020.7 |
| 20260510051530 | 7 | 25 | 1.6 | 11.3 | 0.00 | 0.00 | 0.00 | 92 | 1020.9 |
| 20260510050034 | 7 | 103 | 4.8 | 14.5 | 0.00 | 0.00 | 0.00 | 91 | 1021.1 |
| 20260510044530 | 7 | 289 | 3.2 | 24.1 | 0.00 | 0.00 | 0.00 | 91 | 1021.0 |
| 20260510043032 | 7 | 86 | 4.8 | 17.7 | 0.00 | 0.00 | 0.00 | 91 | 1021.1 |
| 20260510041528 | 7 | 36 | 4.8 | 12.9 | 0.00 | 0.00 | 0.00 | 91 | 1021.1 |
| 20260510040033 | 7 | 17 | 4.8 | 16.1 | 0.00 | 0.00 | 0.00 | 91 | 1021.3 |
| 20260510034538 | 7 | 32 | 3.2 | 14.5 | 0.00 | 0.00 | 0.00 | 91 | 1021.4 |
| 20260510033034 | 7 | 46 | 3.2 | 16.1 | 0.00 | 0.00 | 0.00 | 91 | 1021.4 |
| 20260510031542 | 7 | 288 | 4.8 | 14.5 | 0.00 | 0.00 | 0.00 | 91 | 1021.4 |
| 20260510030030 | 7 | 46 | 4.8 | 14.5 | 0.00 | 0.00 | 0.00 | 91 | 1021.5 |
| 20260510024540 | 8 | 198 | 9.7 | 20.9 | 0.00 | 0.00 | 0.00 | 91 | 1021.6 |
| 20260510023033 | 8 | 79 | 6.4 | 24.1 | 0.00 | 0.00 | 0.00 | 90 | 1021.5 |
| 20260510021530 | 8 | 33 | 4.8 | 17.7 | 0.00 | 0.00 | 0.00 | 90 | 1021.6 |
| 20260510020030 | 8 | 350 | 4.8 | 20.9 | 0.00 | 0.00 | 0.00 | 90 | 1021.7 |
| 20260510014533 | 8 | 78 | 4.8 | 22.5 | 0.00 | 0.00 | 0.00 | 89 | 1021.7 |
| 20260510013028 | 8 | 327 | 3.2 | 16.1 | 0.00 | 0.00 | 0.00 | 89 | 1021.6 |
| 20260510011538 | 8 | 318 | 6.4 | 16.1 | 0.00 | 0.00 | 0.00 | 89 | 1021.6 |
| 20260510010034 | 9 | 58 | 3.2 | 14.5 | 0.00 | 0.00 | 0.00 | 89 | 1021.6 |
| 20260510004531 | 9 | 100 | 1.6 | 12.9 | 0.00 | 0.00 | 0.00 | 88 | 1021.5 |
| 20260510003055 | 9 | 80 | 3.2 | 20.9 | 0.00 | 0.00 | 0.00 | 88 | 1021.1 |
| 20260510001531 | 9 | 313 | 6.4 | 22.5 | 0.00 | 0.00 | 0.00 | 88 | 1021.4 |
| 20260510000037 | 9 | 107 | 4.8 | 19.3 | 0.00 | 0.00 | 0.00 | 87 | 1021.3 |
| 20260509234530 | 10 | 113 | 3.2 | 16.1 | 0.00 | 0.00 | 0.00 | 87 | 1021.5 |
| 20260509233030 | 10 | 300 | 4.8 | 16.1 | 0.00 | 0.00 | 0.00 | 86 | 1021.5 |
| 20260509231540 | 10 | 55 | 8.0 | 22.5 | 0.00 | 0.00 | 0.00 | 86 | 1021.4 |
| 20260509230033 | 10 | 13 | 4.8 | 20.9 | 0.00 | 0.00 | 0.00 | 86 | 1021.5 |
| 20260509224534 | 10 | 14 | 9.7 | 20.9 | 0.00 | 0.00 | 0.00 | 86 | 1021.2 |
| 20260509223031 | 10 | 340 | 6.4 | 20.9 | 0.00 | 0.00 | 0.00 | 85 | 1021.1 |
| 20260509221531 | 11 | 16 | 6.4 | 20.9 | 0.00 | 0.00 | 0.00 | 85 | 1021.0 |
| 20260509220030 | 11 | 24 | 6.4 | 19.3 | 0.00 | 0.00 | 0.00 | 84 | 1020.9 |
| 20260509214531 | 11 | 23 | 6.4 | 17.7 | 0.00 | 0.00 | 0.00 | 84 | 1020.8 |